Regional Weather Roundup
Issued by NWS Jackson, KY

Home | Current Version | Previous Version | Text Only | Print | Product List | Glossary Off
Versions: 1 2 3 4 5 6 7 8 9 10 11 12 13 14 15 16 17 18 19 20 21 22 23 24 25 26 27 28 29 30 31 32 33 34 35 36 37 38 39 40 41 42 43 44 45 46 47 48 49 50

000
ASUS43 KJKL 211410
RWRJKL

EAST KENTUCKY HOURLY WEATHER ROUNDUP
NATIONAL WEATHER SERVICE JACKSON KY
1000 AM EDT SAT OCT 21 2017

NOTE: "FAIR" INDICATES FEW OR NO CLOUDS BELOW 12,000 FEET WITH
NO SIGNIFICANT WEATHER AND/OR OBSTRUCTIONS TO VISIBILITY.

* THESE REPORTS ARE NOT UNDER NWS QUALITY CONTROL AND MAY NOT
  REPORT WEATHER SUCH AS PRECIPITATION AND FOG.

KYZ079-080-083-085-087-088-110-112-115-119-120-211500
...EASTERN KENTUCKY...

CITY           SKY/WX    TMP DP  RH WIND       PRES   REMARKS
JACKSON        CLOUDY    58  51  78 CALM      30.30R
LONDON         MOSUNNY   54  50  86 CALM      30.31R
SOMERSET*      CLOUDY    52  52 100 CALM      30.32R
MONTICELLO*    CLOUDY    58  54  86 N9        30.31R
WILLIAMSBURG*  MOSUNNY   54  52  94 CALM      30.30S
MIDDLESBORO*   FOG       46  46 100 CALM      30.35R VSB 1/2
HARLAN APT*    CLOUDY    48  46  93 CALM      30.34R
PIKE CO APT*     N/A     57  49  74 SE3       30.31S
BIG SANDY APT* SUNNY     60  52  75 CALM      30.31S
MOREHEAD APT*  CLOUDY    55  50  82 CALM      30.31R
$$

KYZ035-036-041-042-044-050-067-078-099-211500
...CENTRAL KENTUCKY...

CITY           SKY/WX    TMP DP  RH WIND       PRES   REMARKS
MT STERLING*   CLOUDY    55  52  88 CALM      30.30S
FLEMING/MASON* CLOUDY    58  54  88 CALM      30.29S
DANVILLE*      CLOUDY    57  50  77 S3        30.29S
LEXINGTON      CLOUDY    62  52  69 S7        30.28R
FRANKFORT      CLOUDY    60  53  77 S3        30.25S
LOUISVILLE     PTSUNNY   60  52  74 SE6       30.24R
LEBANON*         N/A     61  50  67 SE9       30.27R
GLASGOW*       MOSUNNY   61  50  68 CALM      30.26R
BOWLING GREEN  CLOUDY    54  52  93 CALM      30.25R
$$

KYZ091>093-OHZ055-061-077-WVZ005-015-034-035-042-211500
...SOUTHERN OHIO/WEST VIRGINIA...

CITY           SKY/WX    TMP DP  RH WIND       PRES   REMARKS
COVINGTON      MOSUNNY   61  54  77 S8        30.25R
COLUMBUS       PTSUNNY   58  48  69 SE3       30.28R
DAYTON         PTSUNNY   60  56  86 SE6       30.27R
WILMINGTON     SUNNY     63  55  75 S5        30.26R
HUNTINGTON     MOSUNNY   57  52  83 SW6       30.29R
CHARLESTON     CLOUDY    54  49  83 CALM      30.30R
PINEVILLE*     SUNNY     54  50  88 MISG      30.39R
BECKLEY        SUNNY     62  45  53 SE10      30.36R
BLUEFIELD      SUNNY     62  41  46 VRB3      30.37R
LOGAN CO APT*    N/A     63  48  59 CALM      30.32R
$$

VAZ002-007-008-TNZ017-027-036-066-071-211500
...SOUTHWEST VIRGINIA/EAST TENNESSEE...

CITY           SKY/WX    TMP DP  RH WIND       PRES   REMARKS
WISE*          SUNNY     63  45  51 SW6       30.37R
JONESVILLE*      N/A     54  48  82 CALM      30.36R
ABINGDON*      SUNNY     61  49  65 E7        30.35S
BRISTOL        CLOUDY    53  50  89 CALM      30.35R
MORRISTOWN*    SUNNY     59  50  72 E5        30.32S
SEVIERVILLE*   SUNNY     52  48  87 CALM      30.32S
KNOXVILLE      CLOUDY    55  54  96 CALM      30.31R
LAFOLLETTE*    SUNNY     52  50  93 CALM      30.36S
OAK RIDGE      FOG       50  50 100 CALM      30.34R VSB 1/4
CROSSVILLE     CLOUDY    61  48  62 VRB3      30.32R
NASHVILLE      CLOUDY    59  50  72 S3        30.25R
$$

...KEY TO REMARKS...
VSB - VISIBILITY IN MILES
WCI - WIND CHILL INDEX
HX  - HEAT INDEX

$$



USA.gov is the U.S. government's official web portal to all federal, state and local government web resources and services.